GFSGBSN_sfc_rhum_150.txt.gz
RH
95 95 95 95 95 95 94 93 92 92 93 94 95 95 93 89 79 74 75 76 77 77 75 73 74 82 61 26 23 21 60 47 32 28 26 29 28 28 32 32 28 27 27 26 23 22 23
96 96 96 96 96 96 95 95 95 94 94 95 96 96 93 83 75 72 74 76 77 77 78 73 73 81 44 30 20 28 26 23 25 24 23 24 26 35 35 36 35 30 30 30 28 24 24
95 96 97 98 97 96 96 96 96 96 95 96 96 96 86 76 72 72 73 76 77 77 77 72 72 73 63 24 19 29 31 26 24 22 24 24 23 32 39 35 32 32 33 29 28 28 24
94 92 92 94 95 98 98 98 97 97 97 96 95 88 80 72 73 74 78 78 78 77 75 74 74 79 35 22 38 40 37 27 20 21 21 20 22 37 42 36 29 34 36 37 25 27 24
92 93 94 96 97 96 96 97 96 96 95 92 88 81 77 77 81 79 78 78 79 75 74 78 78 76 43 34 26 23 30 24 17 22 21 16 30 36 40 38 26 36 18 34 27 26 27
93 93 93 94 92 91 92 93 93 92 91 90 90 90 89 83 81 82 82 78 74 68 73 67 62 51 39 28 25 20 28 20 29 28 27 31 43 48 54 34 26 22 38 49 35 38 33
91 90 90 91 92 91 90 92 94 94 92 91 89 89 86 82 84 86 75 56 55 60 81 46 56 40 29 27 30 24 33 36 36 31 37 44 41 39 34 42 31 28 38 41 41 30 36
93 92 92 92 91 90 90 91 93 94 92 91 91 90 89 89 89 82 64 45 54 62 77 52 48 52 43 39 42 34 26 38 47 53 44 52 55 30 29 40 43 45 48 47 38 33 32
93 94 93 92 92 92 91 91 94 94 92 92 93 93 93 91 84 70 62 41 56 58 76 54 49 48 44 42 47 40 26 36 45 54 50 50 43 40 36 43 43 46 49 46 40 36 35
88 89 90 94 93 93 93 93 92 92 92 94 93 93 93 90 84 79 69 63 53 47 66 48 38 40 37 39 44 34 29 30 48 49 56 57 41 41 46 46 44 51 41 40 43 41 49
88 88 91 94 94 94 94 94 94 92 92 92 93 91 93 74 85 78 65 60 61 55 94 42 39 26 31 40 33 33 30 37 43 52 51 49 45 57 56 48 42 46 37 40 41 43 47
88 88 86 88 90 95 97 97 95 93 93 93 93 92 92 83 78 59 68 73 71 92 93 50 33 30 32 30 25 30 30 27 32 45 42 44 32 32 41 33 40 36 39 40 47 47 57
84 84 87 89 88 90 96 93 96 95 94 94 93 91 87 67 64 66 77 72 92 96 42 43 46 36 31 30 28 40 29 34 36 41 42 34 30 27 26 32 32 33 42 58 59 63 57
78 80 82 84 90 92 92 96 98 98 96 96 94 93 91 70 76 71 83 94 98 61 59 36 38 40 36 33 30 37 37 35 33 29 37 37 36 25 24 24 33 33 36 65 60 59 51
72 74 76 79 82 84 89 94 95 96 97 97 97 99 90 87 82 76 93 99 82 56 38 46 41 41 48 42 40 37 46 49 33 30 32 41 37 29 21 21 23 36 42 32 51 61 61
68 70 72 74 75 78 83 84 92 93 95 99 99 99 98 82 79 86 100 86 73 54 42 41 51 43 43 37 49 51 50 45 45 29 27 36 45 39 34 29 28 31 34 57 71 60 54
65 66 70 70 72 75 79 81 82 89 93 95 100 100 91 89 88 98 98 86 67 49 47 46 50 48 46 43 40 41 54 47 40 41 33 42 52 53 42 45 41 42 46 53 54 64 56
62 64 65 68 69 72 73 81 82 81 91 97 100 100 96 84 100 100 97 76 62 51 43 48 50 48 48 46 43 45 58 48 45 43 62 68 68 70 52 42 42 48 57 59 70 65 81
63 63 64 66 68 72 72 75 79 84 83 100 100 100 96 93 99 99 87 70 61 55 50 50 50 47 48 44 48 46 49 48 47 53 68 63 98 92 66 48 58 67 60 60 58 75 75
61 63 65 64 66 69 71 72 75 79 82 96 100 100 100 100 99 86 85 78 78 61 59 53 49 44 48 55 48 56 63 50 47 48 64 55 80 95 91 84 67 88 73 59 82 88 86
61 61 62 64 66 67 70 72 73 77 82 95 100 100 99 99 99 99 83 87 80 70 62 52 58 50 47 53 60 64 58 53 48 50 61 66 69 57 51 46 51 69 70 50 83 94 97
59 60 61 63 63 63 68 71 74 76 76 98 100 100 100 100 99 100 99 98 83 71 64 62 64 54 51 53 47 61 57 57 59 50 56 63 98 83 82 59 58 70 83 75 55 52 76
59 60 63 61 64 65 66 68 72 76 83 100 100 98 100 96 99 100 94 98 89 67 65 48 55 54 58 50 46 41 42 48 50 55 78 80 82 85 76 67 70 89 76 69 55 47 49
60 59 59 61 61 63 64 68 71 73 78 99 99 98 100 97 98 90 98 96 98 87 92 57 51 57 51 42 48 59 60 59 61 61 70 84 83 84 83 90 94 60 52 52 53 50 50
66 65 63 60 60 62 65 66 71 73 73 98 98 97 99 94 88 75 76 84 87 96 97 94 62 55 53 62 78 72 77 63 58 60 67 73 78 86 87 78 66 57 54 63 63 51 45
63 62 61 63 61 66 68 67 70 74 73 96 99 97 99 100 87 68 92 95 91 92 98 99 80 74 69 92 89 88 83 62 69 60 60 78 77 81 95 91 95 57 46 42 47 69 46
68 68 67 65 68 67 67 68 71 73 75 92 98 92 99 99 88 79 89 86 84 92 98 90 85 89 83 99 98 97 83 60 66 61 78 86 88 89 85 91 76 59 44 46 67 54 66
74 75 75 75 72 72 70 70 72 71 73 90 96 98 98 98 85 79 71 76 70 86 93 89 91 94 99 99 98 97 95 72 66 60 60 64 78 94 91 96 81 53 69 63 63 74 77
82 80 80 79 82 78 71 71 73 70 73 80 99 95 94 100 97 91 74 69 81 63 86 92 85 96 94 95 98 96 93 92 74 80 65 72 66 76 70 73 63 65 72 77 82 83 83

GFSGBSN_sfc_rhum_156.txt.gz
RH
91 90 91 92 93 94 92 92 92 91 91 90 90 90 92 93 82 88 79 73 71 72 73 69 71 75 33 36 31 16 53 41 15 12 13 13 13 13 11 12 13 14 11 12 12 14 12
92 92 92 93 93 94 93 93 93 93 92 92 91 91 93 93 93 89 80 73 70 71 72 69 69 77 30 45 20 15 15 14 14 13 12 13 14 17 15 13 15 16 15 13 12 12 13
93 93 93 94 94 94 94 95 95 95 95 94 93 93 94 94 94 86 78 73 72 73 73 68 67 31 35 42 22 16 17 17 15 14 13 12 13 15 17 16 17 16 16 10 10 10 12
93 94 94 95 96 96 96 97 97 97 97 96 95 95 95 96 91 80 74 74 72 73 74 68 68 33 52 28 18 19 18 18 15 14 14 12 12 14 18 18 16 14 13 11 9 11 11
97 98 97 97 97 98 98 98 97 97 97 97 97 97 97 90 78 76 73 76 79 76 72 70 46 38 49 33 27 17 16 16 15 15 15 13 15 17 20 18 18 16 16 14 10 10 11
97 96 98 98 98 98 98 97 98 98 98 98 98 96 88 84 80 80 82 78 75 69 56 41 34 48 39 39 23 16 16 15 15 16 17 18 18 20 18 18 23 20 18 14 14 10 14
97 97 97 98 97 97 97 97 97 97 96 95 90 89 88 90 86 83 66 57 48 52 41 47 43 38 28 22 20 17 16 17 17 18 22 20 21 24 20 19 18 16 16 15 12 10 17
94 95 94 95 96 96 96 95 96 95 91 90 90 88 88 88 83 80 59 37 39 48 49 35 32 35 31 30 37 24 19 22 26 28 24 29 30 23 21 20 21 19 20 19 15 13 18
96 94 93 93 92 92 91 93 94 95 93 91 91 90 89 85 78 64 53 45 42 45 54 44 38 37 33 31 38 34 22 26 31 34 31 34 28 26 25 24 25 24 24 23 21 16 14
94 94 95 93 93 94 94 94 94 94 95 95 93 93 91 85 77 61 58 48 45 45 57 42 37 35 36 35 42 27 25 27 30 36 32 34 27 30 30 31 26 32 20 22 20 21 23
92 93 94 93 94 96 97 97 96 96 96 95 96 93 91 84 72 63 50 50 52 54 73 36 30 23 29 36 25 28 26 30 36 33 33 35 32 32 34 30 26 30 25 24 22 23 24
90 92 91 92 93 96 97 98 97 97 96 97 96 94 90 87 73 52 52 66 68 78 76 40 25 30 36 32 25 25 28 28 27 33 30 32 24 27 27 25 24 25 29 27 27 26 36
92 91 89 87 88 93 94 95 97 96 97 96 95 92 79 59 63 61 71 68 94 83 33 37 32 25 26 26 26 25 33 34 32 48 46 34 32 26 24 26 29 28 30 39 38 38 36
85 87 89 91 92 92 93 95 97 96 96 96 95 94 82 53 52 65 76 91 100 41 38 32 33 30 29 22 22 22 25 30 29 29 31 36 37 31 27 28 28 31 29 42 67 47 32
78 80 81 82 84 89 93 94 94 95 98 96 96 98 89 68 65 67 88 100 69 44 35 37 35 38 35 28 23 22 27 25 23 28 35 31 28 18 18 26 28 35 36 26 41 36 41
74 75 75 77 80 82 84 92 94 92 93 97 99 98 97 89 76 73 97 85 56 40 32 33 42 37 39 32 35 30 27 32 33 27 23 26 31 23 22 17 18 26 22 44 41 50 46
73 74 73 73 74 76 81 83 88 93 92 88 98 100 98 94 92 96 99 89 59 41 34 36 41 39 34 33 31 36 39 34 34 34 28 24 29 33 28 30 23 26 29 28 32 34 38
67 68 69 70 73 74 77 84 82 90 87 86 98 100 96 93 100 100 98 69 61 46 38 42 38 36 38 34 32 34 43 44 39 40 43 45 43 39 30 33 30 34 39 36 52 47 39
65 66 66 68 70 74 73 77 82 81 82 82 99 100 92 98 100 100 72 67 58 48 42 43 45 38 35 39 44 38 43 42 41 44 51 45 69 55 61 43 42 58 59 56 53 52 49
58 63 66 65 67 70 73 73 76 80 78 75 97 99 99 98 100 99 88 94 96 52 50 40 39 38 40 42 38 43 47 47 44 41 63 55 72 93 86 92 70 88 83 95 97 93 83
57 59 60 61 65 65 68 72 75 75 79 73 99 99 80 99 100 99 99 99 94 89 54 43 46 42 43 52 47 53 52 51 43 53 46 48 60 67 67 73 73 73 66 71 90 80 96
60 59 58 59 60 61 64 67 73 75 77 81 99 99 99 99 93 99 100 100 90 90 80 59 54 41 42 46 42 42 44 49 54 40 46 46 66 54 55 44 53 61 47 43 42 48 56
58 59 58 62 60 61 62 64 69 76 74 96 94 93 94 84 91 87 75 68 70 74 86 84 78 84 66 43 37 37 42 37 35 38 44 51 59 58 57 36 41 54 39 34 33 34 41
64 64 61 58 62 62 60 64 68 72 75 78 75 65 90 79 72 66 64 72 87 93 96 84 86 93 64 61 60 54 47 41 35 34 33 47 53 51 56 46 87 31 24 28 30 28 30
62 62 60 59 59 59 63 62 66 70 75 70 71 74 94 83 52 41 48 54 58 72 89 88 66 70 67 95 98 90 76 57 45 36 36 36 41 57 68 47 36 29 29 48 45 33 26
63 66 68 68 64 65 66 65 66 66 75 74 62 67 85 85 64 44 48 42 55 53 62 57 51 49 73 100 99 91 79 61 47 39 32 35 42 59 49 61 66 43 24 24 27 45 21
65 64 62 63 66 68 70 67 65 67 69 78 75 68 72 94 51 48 53 55 45 50 64 75 88 86 78 100 97 90 71 43 49 47 61 57 62 72 59 62 46 26 25 27 52 38 25
72 70 69 70 70 70 71 72 69 66 70 79 77 76 74 84 56 49 47 54 50 52 65 45 72 96 100 99 92 93 91 52 47 36 41 50 60 67 64 77 72 28 33 42 34 42 34
78 76 73 71 69 72 74 74 72 67 70 75 83 72 84 95 68 61 58 50 45 43 52 53 61 74 98 86 84 93 88 73 55 61 39 68 48 59 47 49 34 38 34 33 34 28 39

GFSGBSN_sfc_rhum_159.txt.gz
RH
92 90 90 91 94 94 92 92 92 92 92 91 90 90 89 90 92 87 88 82 73 70 71 70 70 74 41 26 21 16 41 40 14 13 14 13 11 10 10 8 8 10 9 8 8 8 9
94 92 92 92 92 93 92 92 92 92 92 91 91 91 90 90 92 91 91 82 78 74 74 69 69 75 40 41 17 16 15 16 16 15 14 12 11 10 11 10 10 9 11 10 9 8 9
94 95 94 93 92 92 92 93 94 93 93 93 92 92 91 90 93 94 91 83 77 75 74 68 66 36 44 40 17 16 17 18 18 18 18 13 11 11 11 13 9 11 11 8 8 8 9
93 95 95 94 93 94 94 95 95 95 96 95 94 94 94 92 94 96 89 79 76 75 73 70 66 40 54 27 22 24 19 20 20 18 17 14 12 14 13 12 14 13 12 12 8 6 7
94 94 94 94 96 96 95 96 96 96 96 97 97 96 96 95 96 92 79 75 76 74 73 66 48 46 50 35 28 21 20 21 13 15 16 13 14 17 16 20 19 16 16 14 10 8 8
95 95 97 98 98 98 98 98 98 98 98 98 98 98 98 98 91 81 77 78 70 69 59 35 34 50 40 36 24 18 14 16 16 16 18 17 18 21 19 19 24 19 17 15 14 10 10
96 97 96 97 98 98 98 98 98 98 97 97 98 98 94 88 86 86 73 58 53 52 47 45 37 38 27 21 18 20 18 18 16 18 23 19 21 23 20 18 17 17 18 17 13 10 12
96 96 97 97 98 98 97 98 98 98 98 96 93 91 90 89 88 84 72 50 40 47 51 38 36 33 28 24 31 18 13 20 22 24 21 23 27 20 17 18 21 21 22 21 16 14 14
98 98 98 98 98 97 97 98 97 96 95 93 92 90 90 90 85 74 60 43 34 38 52 39 32 32 30 27 36 32 21 21 25 28 27 29 24 20 22 23 25 24 25 24 22 16 15
94 95 98 96 96 97 96 95 94 94 94 93 92 91 90 85 82 61 56 34 38 45 57 36 36 33 30 29 37 24 23 26 27 33 30 31 24 26 26 28 25 29 19 21 22 22 25
92 91 90 92 94 98 97 96 95 94 94 94 94 93 92 88 72 59 49 46 48 66 81 30 29 21 24 35 26 26 22 28 37 32 31 35 29 30 32 28 24 29 23 24 24 24 25
92 94 92 92 94 97 98 98 97 97 96 96 96 94 90 92 82 62 62 65 67 92 83 33 23 28 30 31 28 21 26 26 27 33 30 30 21 23 24 22 23 22 26 27 26 27 37
92 92 93 93 94 94 97 98 98 97 97 97 96 94 86 81 80 88 89 91 98 98 27 31 27 23 26 26 26 22 28 36 33 43 42 32 29 22 23 27 24 25 31 41 40 39 38
91 93 93 93 92 93 94 96 96 98 97 97 96 95 84 57 53 70 84 95 100 46 37 25 27 25 27 22 22 21 23 28 25 25 28 29 37 24 23 28 27 28 30 40 50 42 30
84 90 90 90 94 93 92 92 94 98 96 97 97 98 93 70 63 66 83 100 61 42 29 32 31 33 28 24 22 21 23 22 19 21 32 28 26 16 21 22 23 28 33 26 39 37 49
77 77 80 83 86 88 92 92 93 92 96 98 99 99 94 73 67 71 96 93 56 34 32 31 40 31 33 26 27 25 23 22 22 20 20 27 33 19 18 15 20 26 22 42 46 68 54
75 74 73 74 76 82 82 88 91 91 92 93 99 100 98 94 90 96 99 88 51 38 35 37 40 36 32 29 28 31 29 30 28 26 25 23 29 28 23 24 20 20 30 28 31 46 49
70 71 72 73 72 75 82 81 87 90 93 90 98 100 96 96 100 100 98 69 59 39 40 38 38 37 40 34 34 33 32 35 32 33 34 29 34 38 28 23 22 22 27 26 49 41 37
65 65 66 69 73 72 74 80 81 88 85 68 99 100 95 92 100 100 82 78 60 47 41 39 40 36 34 40 45 36 32 38 37 40 41 40 54 52 39 40 30 31 41 44 42 45 51
62 66 65 65 68 72 72 73 74 79 75 67 90 100 98 98 100 100 97 96 96 54 45 41 45 37 39 39 34 35 36 39 38 40 59 54 60 73 64 90 90 95 76 66 75 85 70
58 60 61 64 64 65 70 70 73 74 78 70 91 97 65 99 99 97 95 92 97 95 65 54 81 52 47 53 38 40 33 39 38 52 42 44 55 46 47 56 65 66 57 51 72 70 96
60 61 61 61 61 62 64 68 72 72 76 70 97 97 79 70 70 76 98 100 88 70 99 86 81 48 46 50 46 40 39 39 44 36 45 45 59 46 46 38 37 51 41 39 37 38 50
62 64 62 62 61 61 61 64 69 74 76 88 83 67 79 65 67 72 71 69 68 60 66 67 95 96 72 59 58 59 60 51 53 50 51 54 60 54 62 34 36 53 36 28 26 25 30
65 63 61 60 63 62 62 63 66 70 76 54 57 42 79 81 61 62 56 58 63 54 92 61 73 84 68 53 49 45 46 44 43 42 36 45 48 56 63 42 73 35 18 19 24 22 20
67 66 65 64 61 62 64 63 66 70 73 53 43 48 84 84 39 34 37 42 50 66 84 74 54 47 53 70 80 68 59 63 59 41 38 33 41 70 74 52 36 25 22 32 34 30 21
63 63 64 63 62 63 65 65 64 66 70 57 46 44 71 82 58 33 38 31 42 42 46 51 39 38 69 98 97 90 71 54 50 44 37 35 40 60 72 66 65 42 20 19 22 43 23
67 66 65 67 72 71 70 69 67 67 66 61 64 56 54 90 45 38 43 46 34 38 51 43 38 59 58 91 92 85 64 38 67 52 47 53 56 72 62 66 42 22 18 22 46 37 21
74 71 71 70 72 73 72 73 71 68 68 64 60 55 57 83 50 41 39 43 38 37 54 40 54 66 94 98 91 72 73 49 58 43 43 51 65 77 68 80 72 22 21 38 35 28 25
83 76 73 72 72 72 72 72 74 71 66 69 75 50 47 81 57 51 50 41 36 34 38 38 44 49 72 89 95 89 92 86 57 71 36 77 60 69 52 53 32 25 26 24 25 25 23

GFSGBSN_sfc_rhum_162.txt.gz
RH
91 90 90 91 93 94 93 93 93 92 92 91 91 90 89 89 89 91 90 89 85 80 78 76 76 77 51 34 26 17 53 44 15 15 17 17 15 14 13 10 8 8 8 8 8 7 8
93 92 92 92 92 94 93 93 94 93 92 92 92 91 90 89 89 90 92 91 86 80 77 74 73 78 47 48 17 15 16 16 17 18 18 16 14 12 13 12 11 10 9 9 10 9 8
96 95 94 94 93 92 93 94 94 93 92 92 92 91 91 89 89 90 93 93 87 80 77 72 69 48 57 52 21 21 20 19 17 18 20 18 15 15 14 15 12 12 13 11 9 8 9
96 95 94 95 95 94 94 94 94 93 93 92 92 93 93 92 91 92 95 94 85 79 78 74 72 52 67 34 26 22 20 23 20 19 21 20 19 18 19 16 14 15 16 18 12 9 8
95 95 95 95 96 96 96 95 95 94 94 95 95 96 95 95 94 94 95 86 78 76 75 73 57 57 61 33 33 27 26 27 22 19 20 17 17 21 21 24 23 21 23 18 14 9 7
94 95 94 96 96 97 97 96 96 96 96 97 97 98 98 97 97 94 80 76 75 72 64 44 46 61 47 38 25 23 16 19 22 17 19 22 21 24 25 27 32 24 21 18 17 12 9
98 95 96 96 96 97 97 98 98 98 99 99 99 98 98 98 92 86 78 69 71 70 62 52 41 40 26 28 17 25 18 18 20 21 27 22 26 30 26 24 21 20 20 20 16 14 14
96 97 97 96 96 97 97 98 99 99 98 97 97 97 94 90 89 89 79 76 68 51 64 45 45 38 31 28 32 23 17 26 27 34 24 26 30 21 19 19 19 20 22 23 18 15 17
99 96 96 98 98 97 97 97 98 98 98 97 96 94 92 92 91 89 71 68 44 51 77 49 37 38 36 32 38 33 24 21 24 28 26 30 24 20 21 22 23 23 26 26 24 19 18
90 96 98 97 97 97 97 97 97 98 97 96 95 94 94 93 88 73 77 55 46 64 86 46 37 33 30 30 36 24 25 29 26 30 27 28 22 24 25 26 25 32 22 23 23 25 31
91 89 92 94 99 99 98 97 96 96 95 95 94 92 91 85 73 66 62 50 58 76 96 29 31 22 25 34 27 27 22 29 41 37 32 36 30 30 32 30 26 30 24 27 27 32 34
92 93 92 92 94 98 98 98 96 96 95 95 94 94 92 94 92 77 76 72 78 98 95 32 25 30 30 34 32 21 26 25 28 36 34 33 24 26 26 24 24 23 28 29 30 34 46
92 91 92 93 94 94 98 98 97 97 96 96 96 94 94 94 96 94 95 95 99 100 30 36 28 26 28 33 34 27 27 39 42 52 50 38 35 27 25 30 26 26 33 47 48 52 52
90 92 92 91 92 91 95 96 98 98 97 96 97 96 93 85 94 96 98 98 100 52 42 29 26 22 27 25 25 24 26 30 32 32 32 34 38 29 25 30 31 30 32 49 61 55 38
85 93 93 94 95 94 95 95 95 97 98 97 98 99 97 86 78 91 97 100 80 46 32 65 51 35 29 24 23 22 24 24 21 25 36 33 27 19 20 21 24 32 36 27 44 41 55
81 86 92 93 95 96 95 92 89 90 98 98 99 99 98 83 81 95 100 96 62 34 32 33 58 38 36 29 29 26 23 24 20 18 19 27 38 22 18 18 20 27 24 44 66 89 59
76 76 76 81 87 91 91 93 91 94 97 96 99 100 98 97 94 100 99 84 58 42 38 46 39 39 34 31 27 36 32 30 26 24 23 26 33 31 22 23 23 21 31 34 35 70 76
74 74 74 72 75 79 85 83 91 90 89 90 98 100 97 98 100 100 97 69 55 38 36 42 40 43 43 38 34 33 31 47 36 33 38 40 42 44 32 24 24 27 29 28 53 55 50
67 68 69 71 71 72 77 82 81 89 87 98 100 100 96 95 100 100 89 77 59 54 42 45 45 38 37 40 46 38 34 35 37 38 48 42 61 54 40 31 30 49 52 50 54 48 55
65 65 64 66 69 71 70 72 75 80 78 94 99 100 100 99 100 100 97 94 81 62 56 45 40 36 38 39 35 39 35 31 37 35 59 53 54 64 58 85 85 97 76 61 76 89 82
57 60 63 64 64 66 70 70 72 72 79 80 98 99 72 99 100 100 98 93 82 98 91 70 87 61 48 53 49 44 34 30 37 52 43 45 52 44 41 39 69 70 74 72 77 75 94
59 58 59 59 61 62 64 67 71 71 74 89 99 97 87 98 74 88 98 100 87 97 96 98 98 95 93 91 71 60 66 48 52 44 46 45 62 46 48 36 44 69 51 44 46 49 55
64 63 62 61 60 59 59 62 66 71 73 94 93 66 87 82 90 92 79 65 60 59 76 67 97 93 79 97 95 92 81 63 65 65 66 65 63 58 68 41 39 59 50 37 33 32 35
66 62 64 64 63 62 60 62 63 67 73 68 65 76 90 79 72 77 61 59 63 62 75 59 56 72 60 56 48 47 53 64 52 48 44 61 68 69 73 55 85 46 27 34 35 24 22
67 65 66 64 61 62 65 62 65 66 69 63 43 51 90 83 46 34 32 57 52 50 69 60 50 40 68 63 74 63 54 58 69 48 43 47 58 71 80 71 48 35 29 32 32 30 22
65 66 68 66 68 65 64 66 64 66 67 63 56 47 71 84 59 35 36 31 38 40 56 61 42 45 46 79 87 92 68 53 52 43 37 41 51 67 88 80 81 55 28 21 23 68 37
66 66 66 68 71 72 70 68 66 65 65 62 50 58 52 91 48 44 40 44 31 33 47 42 34 58 57 83 84 73 76 46 75 72 56 61 63 75 80 75 54 29 21 22 46 43 21
80 74 73 72 71 72 73 72 71 67 66 63 57 64 70 81 52 44 39 41 37 37 51 40 48 61 89 92 78 72 62 47 51 47 54 54 79 76 72 85 82 28 26 55 52 41 27
76 86 76 74 74 75 76 76 74 71 67 66 64 62 53 82 63 50 49 45 46 40 42 45 48 44 66 79 75 73 82 83 69 82 42 72 60 81 61 62 43 30 36 31 34 32 29